#timestamp,LO_Frequency,Hit,StdDev 
1625248815.4,286046998.4,N
1625248835.2,286046999.0,N
1625248855.0,286046999.2,N
1625248856.0,286046999.2,N
1625248875.8,286046999.1,N
1625248895.6,286046996.5,Y
1625248915.5,286046999.5,P
1625248935.3,286046999.3,N
1625248955.1,286046998.9,P
1625248975.9,286046999.4,N
1625248995.7,286046998.4,Y
1625249015.6,286046999.5,P
1625249035.4,286046999.4,P
1625249055.2,286046998.7,P
1625249075.1,286047000.3,N
1625249076.0,286047000.3,N
1625249095.8,286047000.1,N
1625249115.7,286047002.4,Y
1625249135.5,286047000.2,P
1625249155.3,286047000.5,N
1625249175.2,286047002.6,P
1625249195.9,286047000.5,N
1625249215.7,286046998.7,N
1625249235.6,286046998.1,N
1625249255.4,286046998.1,N
1625249275.2,286046998.2,N
1625249295.1,286046996.6,N
1625249296.0,286046996.6,N
1625249315.8,286046999.3,N
1625249335.7,286047001.2,N
1625249355.5,286047002.8,N
1625249375.3,286047001.6,N
1625249395.2,286047001.3,N
1625249415.0,286047002.4,N
1625249415.9,286047002.4,N
1625249435.8,286047000.3,N
1625249455.6,286047001.6,N
1625249475.4,286047004.2,N
1625249495.3,286047003.1,N
1625249515.1,286047005.7,N
1625249535.8,286047005.0,N
1625249555.7,286047007.2,N
1625249575.5,286047007.6,N
1625249595.3,286047007.5,N
1625249615.2,286047008.6,N
1625249635.0,286047008.5,N
1625249635.9,286047008.5,N
1625249655.8,286047009.7,N
1625249675.6,286047011.7,Y
1625249695.4,286047007.9,P
1625249715.3,286047008.5,P
1625249735.1,286047009.1,P
1625249755.9,286047004.7,N
1625249805.7,286047006.3,E
1625249815.6,286047005.4,N
1625249835.5,286047000.2,P
1625249855.3,286047002.8,N
1625249875.2,286047002.3,N
1625249895.9,286047002.7,N
1625249915.7,286047002.2,N
1625249935.6,286047002.2,N
1625249955.4,286047001.8,N
1625249975.2,286047001.7,N
1625249995.1,286047003.9,N
1625249996.0,286047003.9,N
1625250015.8,286047003.6,N
1625250035.7,286047001.8,N
1625250055.5,286047003.8,Y
1625250075.3,286047000.4,P
1625250095.2,286047000.1,N
1625250115.0,286046999.9,N
1625250115.9,286046999.9,N
1625250135.8,286046998.1,N
1625250155.6,286047000.9,N
1625250175.4,286046999.2,N
1625250195.3,286046998.0,N
1625250215.1,286046997.1,N
1625250235.9,286046999.1,N
1625250255.7,286046997.3,N
1625250275.5,286046994.9,Y
1625250295.4,286046996.5,P
1625250315.2,286046996.8,N
1625250335.0,286046995.1,P
1625250335.9,286046995.1,Y
1625250355.8,286046999.1,P
1625250375.6,286046999.5,N
1625250395.5,286046996.6,P
1625250415.3,286046996.8,N
1625250435.1,286046995.1,Y
1625250455.9,286046999.4,P
1625250475.7,286046999.2,N
1625250495.5,286046999.2,N
1625250515.4,286046996.6,Y
1625250535.2,286046998.3,P
1625250555.1,286046999.0,P
1625250556.0,286046999.0,P
1625250575.8,286046996.5,Y
1625250595.6,286046999.5,P
1625250615.5,286046999.6,N
1625250635.3,286046996.9,P
1625250655.2,286046998.4,N
1625250675.9,286046999.3,N
1625250695.7,286046999.2,N
1625250715.6,286047001.2,N
1625250735.4,286046998.3,N
1625250755.2,286046999.6,N
1625250775.1,286046998.8,N
1625250776.0,286046998.8,N
1625250795.8,286046998.7,N
1625250815.7,286046998.2,N
1625250835.5,286046998.4,N
1625250855.3,286046998.8,N
1625250875.2,286046996.8,Y
1625250895.0,286046999.3,P
1625250895.9,286046999.3,P
1625250915.7,286047001.1,P
1625250935.6,286046998.1,N
1625250955.4,286046998.2,N
1625250975.3,286046999.9,N
1625250995.1,286046998.3,N
1625251015.8,286046999.3,N
1625251035.7,286046996.9,Y
1625251055.5,286046997.1,P
1625251075.4,286046999.1,N
1625251095.2,286046998.1,N
1625251115.0,286046998.9,N
1625251115.9,286046998.9,N
1625251135.8,286046998.7,N
1625251155.6,286047001.2,N
1625251175.4,286046998.4,N
1625251195.3,286047001.1,N
1625251215.1,286047000.5,N
1625251235.9,286047002.7,N
1625251255.7,286047000.6,N
1625251275.5,286046998.6,N
1625251295.4,286046998.5,N
1625251315.2,286046999.4,N
1625251335.0,286046998.5,N
1625251335.9,286046998.5,N
1625251355.8,286046998.9,N
1625251375.6,286046996.9,N
1625251395.5,286046999.2,N
1625251415.3,286046998.8,N
1625251435.1,286046997.3,N
1625251455.9,286046997.9,N
1625251475.7,286046998.0,N
1625251495.5,286046997.2,N
1625251515.4,286046998.8,N
1625251535.2,286047000.7,N
1625251555.0,286046998.3,N
1625251556.0,286046998.3,N
1625251575.8,286046998.1,N
1625251595.5,286047001.1,N
1625251615.3,286047000.9,N
1625251635.1,286047000.7,N
1625251655.9,286046999.3,N
1625251675.7,286046998.7,N
1625251695.5,286046998.7,N
1625251715.4,286047001.0,N
1625251735.2,286047000.7,N
1625251755.1,286047000.6,N
1625251756.0,286047000.6,N
1625251775.8,286047000.8,N
1625251795.6,286046998.3,N
1625251815.5,286046999.3,N
1625251835.3,286046999.0,N
1625251855.1,286046999.4,N
1625251875.9,286047000.3,N
1625251895.7,286047000.5,N
1625251915.6,286047000.5,N
1625251935.4,286046999.7,N
1625251955.2,286047000.6,N
1625251975.1,286047000.6,N
1625251976.0,286047000.6,N
1625251995.8,286047001.0,N
1625252015.7,286046998.5,N
1625252035.5,286046998.1,N
1625252055.3,286047001.2,N
1625252075.2,286047001.0,N
1625252095.0,286047000.4,N
1625252095.9,286047000.4,N
1625252115.8,286047000.6,N
1625252135.6,286046998.2,N
1625252155.4,286046999.0,N
1625252175.3,286046998.4,N
1625252195.1,286046998.7,N
1625252215.8,286047000.6,N
1625252235.7,286047000.3,N
1625252255.5,286046999.7,N
1625252275.4,286046999.9,N
1625252295.2,286047002.6,N
1625252315.0,286047002.1,N
1625252315.9,286047002.1,N
1625252335.8,286046999.8,N
1625252355.6,286047002.6,N
1625252375.5,286047002.6,N
1625252395.3,286046998.4,N
